Regional Weather Roundup
Issued by NWS Little Rock, AR

Home | Current Version | Previous Version | Text Only | Print | Product List | Glossary On
Versions: 1 2 3 4 5 6 7 8 9 10 11 12 13 14 15 16 17 18 19 20 21 22 23 24 25 26 27 28 29 30 31 32 33 34 35 36 37 38 39 40 41 42 43 44 45 46 47 48 49 50
000
ASUS44 KLZK 030205
RWRLZK

WEATHER ROUNDUP FOR ARKANSAS
NATIONAL WEATHER SERVICE LITTLE ROCK AR
900 PM CDT TUE SEP 02 2014

NOTE: "FAIR" INDICATES FEW OR NO CLOUDS BELOW 12,000 FEET WITH NO
SIGNIFICANT WEATHER AND/OR OBSTRUCTIONS TO VISIBILITY.

ARZ001-003-010-029-030300-
NORTHWEST ARKANSAS

CITY           SKY/WX    TMP DP  RH WIND       PRES   REMARKS
FAYETTEVILLE   PTCLDY    70  68  93 S6        30.03R
FORT SMITH     CLEAR     72  69  90 E7        29.98R
HARRISON       CLEAR     69  67  93 CALM      30.04R
BENTONVILLE    PTCLDY    73  68  83 CALM      30.03R
ROGERS         MOCLDY    73  69  87 CALM      30.04R
SILOAM SPGS    MOCLDY    72  64  78 S5        30.02S
HIGHFILL       MOCLDY    72  69  90 CALM      30.02R
SPRINGDALE     MOCLDY    73  68  83 NW8       30.04R
$$

ARZ004-005-016-030300-
NORTH CENTRAL ARKANSAS

CITY           SKY/WX    TMP DP  RH WIND       PRES   REMARKS
BATESVILLE     PTCLDY    72  66  83 CALM      29.99R
FLIPPIN        CLEAR     70  64  83 CALM      30.02R
MTN HOME       CLEAR     70  67  90 CALM      30.01R
$$

ARZ040-041-030300-
WEST CENTRAL ARKANSAS

CITY           SKY/WX    TMP DP  RH WIND       PRES   REMARKS
MENA           PTCLDY    73  72  94 CALM      30.00R
MOUNT IDA      MOCLDY    74  70  87 CALM      29.97R
$$

ARZ009-017-025-026-028-030300-
NORTHEAST ARKANSAS

CITY           SKY/WX    TMP DP  RH WIND       PRES   REMARKS
CORNING          N/A     73  72  94 MISG      29.99R
JONESBORO      MOCLDY    72  69  90 CALM      29.98R
NEWPORT        PTCLDY    72  69  90 NW5       29.99R
WALNUT RIDGE   MOCLDY    73  68  83 CALM      29.97R
BLYTHEVILLE    MOCLDY    75  71  87 N3        29.98R
$$

ARZ022-023-033-042-044-030300-
CENTRAL ARKANSAS

CITY           SKY/WX    TMP DP  RH WIND       PRES   REMARKS
LITTLE ROCK    PTCLDY    78  70  76 CALM      29.98R
N LITTLE ROCK  PTCLDY    75  72  89 N3        29.98R
JACKSONVILLE   PTCLDY    75  71  87 CALM      29.99R
HOT SPRINGS    MOCLDY    78  70  76 SE3       29.98R
RUSSELLVILLE   MOCLDY    73  69  87 NW5       29.99R
CLINTON        FAIR      73  72  94 CALM      30.01R FOG
$$

ARZ036-030300-
EAST ARKANSAS

CITY           SKY/WX    TMP DP  RH WIND       PRES   REMARKS
WEST MEMPHIS   PTCLDY    73  73 100 S3        29.98R
$$

ARZ050-053-066-070-073-030300-
SOUTHWEST ARKANSAS

CITY           SKY/WX    TMP DP  RH WIND       PRES   REMARKS
ARKADELPHIA    FAIR      75  73  93 CALM      29.98R
CAMDEN         MOCLDY    73  72  94 CALM      29.99R
TEXARKANA      MOCLDY    75  72  90 SE3       29.98R
EL DORADO      CLOUDY    74  72  93 CALM      29.99R
DE QUEEN       PTCLDY    80  71  74 SE7       29.95R
$$

ARZ056-057-069-030300-
SOUTHEAST ARKANSAS

CITY           SKY/WX    TMP DP  RH WIND       PRES   REMARKS
PINE BLUFF     PTCLDY    77  72  84 SW3       29.98R
STUTTGART      PTCLDY    77  72  83 E3        29.98R
MONTICELLO     MOCLDY    74  72  93 CALM      29.99R

$$




USA.gov is the U.S. government's official web portal to all federal, state and local government web resources and services.